Regional Weather Roundup
Issued by NWS

Home | Current Version | Previous Version | Text Only | Print | Product List | Glossary On
Versions: 1 2 3 4 5 6 7 8 9 10 11 12 13 14 15 16 17 18 19 20 21 22 23 24 25 26 27 28 29 30 31 32 33 34 35 36 37 38 39 40 41 42 43 44 45 46 47 48 49 50
000
ASUS44 KLUB 300201
RWRTX
WEST TEXAS WEATHER ROUNDUP
NATIONAL WEATHER SERVICE LUBBOCK TX
900 PM CDT WED MAR 29 2017

NOTE: "FAIR" INDICATES FEW OR NO CLOUDS BELOW 12,000 FEET WITH NO
SIGNIFICANT WEATHER AND/OR OBSTRUCTIONS TO VISIBILITY.

TXZ004-006>008-010-012-014-016-OKZ002-300300-
TEXAS PANHANDLE/OKLAHOMA PANHANDLE

CITY           SKY/WX    TMP DP  RH WIND       PRES   REMARKS
AMARILLO       CLOUDY    44  39  82 NW10      29.96R
BORGER         CLOUDY    46  40  79 NW8       29.94S
CANADIAN       PTCLDY    47  42  82 NW17G23   29.88S
DALHART        CLOUDY    45  39  79 N3        29.98R
DUMAS          CLOUDY    41  38  89 NW8       29.96R
GUYMON         CLOUDY    44  41  89 N13       29.91S
HEREFORD       PTCLDY    45  41  87 N6        30.00R
PAMPA          MOCLDY    45  40  83 N17G25    29.92S
PERRYTON       CLOUDY    46  41  85 NW20      29.88S
$$

TXZ026-029-035-045-048-300300-
SOUTHERN PANHANDLE/SOUTH PLAINS/ROLLING PLAINS

CITY           SKY/WX    TMP DP  RH WIND       PRES   REMARKS
CHILDRESS      CLOUDY    52  41  66 N16       29.92R
SEMINOLE       CLEAR     49  37  62 N8        30.06R
LUBBOCK        MOCLDY    48  41  76 NW10      29.99R
PLAINVIEW      CLOUDY    46  38  76 N10       29.98R
SNYDER         PTCLDY    50  42  75 W8        29.99R
$$

TXZ052-054-060>062-072-078-127-140-154-169-300300-
PERMIAN BASIN/CONCHO VALLEY/BIG COUNTRY/EDWARDS PLATEAU

CITY           SKY/WX    TMP DP  RH WIND       PRES   REMARKS
ABILENE        CLOUDY    52  48  86 NW10      29.94R
BIG SPRING     CLOUDY    51  41  68 NW10      30.04R
JUNCTION       CLEAR     65  42  43 NW14G21   29.92R
MIDLAND        CLEAR     52  39  61 NW8       30.03R
ODESSA           N/A     53  37  54 N8        30.04R
SAN ANGELO     CLEAR     54  41  61 NW9       29.98R
SONORA         PTCLDY    59  39  47 N10       30.01R
SWEETWATER     MOCLDY    51  46  83 W7        29.99R
WINK           CLOUDY    55  38  52 NW6       30.04R
$$

TXZ055-058-074-075-080-082-300300-
FAR WEST/SOUTHWEST MOUNTAINS/TRANS PECOS

CITY           SKY/WX    TMP DP  RH WIND       PRES   REMARKS
ALPINE         MOCLDY    49  32  52 NE6       30.15R
DRYDEN           N/A     64  35  34 N23G39    29.94R
EL PASO        MOCLDY    62  32  32 E12       30.04R
FORT STOCKTON  MOCLDY    55  37  50 NW10      30.07R
GUADALUPE PASS CLOUDY    45  33  63 NE20      30.10R
MARFA          CLOUDY    49  32  52 N13       30.09R
PECOS          PTCLDY    56  36  46 CALM      30.07R
PRESIDIO       FAIR      65  35  32 N9        30.00R
$$

TXZ014-016-019-021>030-083-300300
TEXAS TECH WEST TEXAS MESONET/TEXAS PANHANDLE/NORTHERN SOUTH PLAINS

CITY           SKY/WX    TMP DP  RH WIND       PRES   REMARKS
ABERNATHY 5ENE   N/A     47  42  81 NW12      30.00R
AMARILLO 9NNE    N/A     45  40  85 NW9       29.97R
AMARILLO 7SSE    N/A     44  38  82 NW9       29.98R
AMHERST 1NE      N/A     45  41  85 N5        30.01S
BOOTLEG 11WNW    N/A     41  36  84 W5        30.03R
CANADIAN 6E      N/A     45  40  82 NW16      29.86R
CAPROCK CYN SP   N/A     49  40  68 NW18      29.96R
CHILDRESS 2NNE   N/A     52  40  65 NW16      29.91R
CLARENDON 2WSW   N/A     47  39  73 NW15      29.93S
CLAUDE 12SW      N/A     44  39  83 NW10      29.95S
DIMMITT 2NE      N/A     43  38  83 NW7       29.99S
FLOYDADA 2NNE    N/A     46  40  80 NW9       29.97R
FRIONA 2NE       N/A     44  38  80 N8        30.01S
GOODLETT 3W      N/A     53  42  66 NW12      29.89S
HART 3N          N/A     45  40  82 NW7       29.99S
MCLEAN 1E        N/A     46  38  74 NW21      29.89S
MEMPHIS 1NE      N/A     51  41  67 NW14      29.92S
MULESHOE 2SSW    N/A     45  39  81 NW1       30.01S
OLTON 6S         N/A     45  39  80 NW8       30.00S
PALO DURO SP     N/A     45  38  78 NW9       29.98R
PAMPA 2E         N/A     43  39  85 NW15      29.91S
PLAINVIEW 1S     N/A     47  40  77 NW10      29.98R
SILVERTON 7ESE   N/A     47  39  73 NW13      29.96R
TULIA 2ENE       N/A     43  39  86 NW7       29.98S
TURKEY 2WSW      N/A     50  42  71 NW12      29.94R
UMBARGER 3NNE    N/A     43  40  87 NW8       29.99R
$$

TXZ033>036-039>041-045>048-300300
TEXAS TECH WEST TEXAS MESONET/SOUTH PLAINS

CITY           SKY/WX    TMP DP  RH WIND       PRES   REMARKS
AIKEN 3WSW       N/A     47  42  82 NW10      29.99R
ANDREWS 2NE      N/A     50  37  60 NW6       30.04R
ANTON 6SSW       N/A     45  41  87 NW6       30.01S
BROWNFIELD 2S    N/A     49  38  65 NW12      30.02S
DENVR CTY 7WNW   N/A     45  34  66 NW6       30.04S
GAIL 2ESE        N/A     47  40  74 W6        30.00R
LAMESA 2SE       N/A     50  40  67 NW8       30.03R
LEVELLAND 4S     N/A     45  37  74 NW6       30.02S
LUBBOCK 3WNW     N/A     48  41  77 NW7       30.01R
MORTON 1ENE      N/A     45  40  84 W3        30.02S
ODONNELL 1N      N/A     50  38  62 NW14      30.01R
PLAINS 3N        N/A     44  36  73 NW6       30.04R
RALLS 1SE        N/A     48  40  76 NW9       29.98R
REESE CENTER     N/A     46  40  81 NW8       30.01R
SEAGRAVES 1SW    N/A     47  37  66 NW9       30.03S
SEMINOLE 2NNE    N/A     49  36  59 N10       30.04R
SLATON 2NE       N/A     49  40  72 NW10      29.99R
SNYDER 3E        N/A     50  44  80 NW12      29.97R
SUNDOWN 8SW      N/A     44  38  79 NW6       30.03R
TAHOKA 3NNE      N/A     49  41  73 NW9       30.00R
WOLFFORTH 6SSW   N/A     48  42  79 NW10      30.01S
$$

TXZ031-032-036>038-042>044-300300-
TEXAS TECH WEST TEXAS MESONET/ROLLING PLAINS

CITY           SKY/WX    TMP DP  RH WIND       PRES   REMARKS
ASPERMONT 3NE    N/A     54  43  66 NW10      29.94R
FLUVANNA 3WNW    N/A     47  40  78 NW7       29.98R
GUTHRIE 10WSW    N/A     50  41  71 W6        29.93S
HASKELL 1NW      N/A     53  45  73 NW8       29.92R
JAYTON 1SSE      N/A     51  42  72 NW8       29.95R
KNOX CITY 3NW    N/A     54  43  66 NW7       29.93R
LK A HENRY 1NW   N/A     47  41  77 W6        29.98R
NORTHFIELD 1S    N/A     52  41  65 NW12      29.93S
ODELL 4ENE       N/A     50  45  81 W7        29.89R
PADUCAH 10SW     N/A     50  42  74 NW9       29.92R
POST 1NE         N/A     48  40  75 W6        29.99R
RRING SPRGS 3N   N/A     48  42  80 NW7       29.94S
SEYMOUR 3NW      N/A     54  43  65 NW10      29.89R
SPUR 1W          N/A     50  42  75 NW7       29.95R
WEINERT 2NNE     N/A     54  44  70 NW8       29.92R
WHITE RVR 6NE    N/A     48  41  76 NW8       29.96R
$$

TXZ052-054-060>062-072-078-127-140-154-169-300300-
TEXAS TECH WEST TEXAS MESONET/PERMIAN BASIN/
CONCHO VALLEY/BIG COUNTRY/EDWARDS PLATEAU

CITY           SKY/WX    TMP DP  RH WIND       PRES   REMARKS
COYANOSA 2N      N/A     58  36  44 NW9       30.06R
JUNCTION 1SSW    N/A     65  42  42 NW8       29.93R
MERTZON 3NNE     N/A     53  41  65 NW8       30.01R
SAN ANGELO 7NW   N/A     54  41  61 NW9       29.98R
STRLNG CT 4WSW   N/A     53  40  62 NW13      30.00S
ST LAWRNCE 5SW   N/A     52  40  63 NW16      30.02R
SWEETWATR 11SW   N/A     49  45  86 NW7       29.98S
WALL 1E          N/A     55  44  67 NW16      29.99R
$$

TXZ055-058-074-075-080-082-300300-
TEXAS TECH WEST TEXAS MESONET/FAR WEST/SOUTHWEST MOUNTAINS/TRANS PECOS

CITY           SKY/WX    TMP DP  RH WIND       PRES   REMARKS
PRSMN GAP BBNP   N/A     63  33  33 N14       30.00R
GUADLPE MTN NP   N/A     42  32  67 N5        30.12R
$$




USA.gov is the U.S. government's official web portal to all federal, state and local government web resources and services.